CW0506 Weather Reports


Display with metric or nautical units.
time (UTC)temp
F
wind
direction
speed
MPH
gust
MPH
rain 1hr
in
rain 24hr
in
rain mn
in
humidity
%
barometer
mb
20260509031246 39 241 0.0 1.0 0.00 0.00 0.00 90 1015.1
20260509030744 39 249 0.0 2.0 0.00 0.00 0.00 90 1015.1
20260509030241 39 104 0.0 1.0 0.00 0.00 0.00 90 1015.1
20260509025738 39 247 0.0 2.0 0.00 0.00 0.00 90 1015.1
20260509025233 39 247 0.0 1.0 0.00 0.00 0.00 90 1014.8
20260509024728 39 299 0.0 2.0 0.00 0.00 0.00 89 1015.0
20260509024224 40 189 0.0 2.0 0.00 0.00 0.00 88 1014.9
20260509023722 40 146 0.0 2.0 0.00 0.00 0.00 88 1015.0
20260509023219 41 30 0.0 2.0 0.00 0.00 0.00 88 1014.9
20260509022715 40 44 0.0 1.0 0.00 0.00 0.00 88 1014.9
20260509022213 40 251 1.0 2.0 0.00 0.00 0.00 87 1014.9
20260509021710 41 155 0.0 2.0 0.00 0.00 0.00 86 1014.9
20260509021207 40 268 0.0 2.0 0.00 0.00 0.00 86 1014.8
20260509020705 41 144 0.0 2.0 0.00 0.00 0.00 85 1014.8
20260509020202 41 160 0.0 1.0 0.00 0.00 0.00 84 1014.8
20260509015700 41 257 0.0 1.0 0.00 0.00 0.00 84 1014.8
20260509015158 41 118 0.0 2.0 0.00 0.00 0.00 82 1014.5
20260509014654 42 221 1.0 2.0 0.00 0.00 0.00 81 1014.5
20260509014151 42 150 2.0 2.0 0.00 0.00 0.00 80 1014.6
20260509013648 42 119 1.0 2.0 0.00 0.00 0.00 80 1014.6
20260509013143 43 264 0.0 2.0 0.00 0.00 0.00 79 1014.5
20260509012640 43 144 0.0 0.0 0.00 0.00 0.00 78 1014.4
20260509012137 43 55 0.0 1.0 0.00 0.00 0.00 78 1014.2
20260509011635 43 132 0.0 0.0 0.00 0.00 0.00 77 1014.2
20260509011132 43 66 0.0 1.0 0.00 0.00 0.00 77 1014.1
20260509010630 43 280 0.0 0.0 0.00 0.00 0.00 76 1013.9
20260509010126 44 189 0.0 1.0 0.00 0.00 0.00 74 1013.8
20260509005624 45 135 0.0 2.0 0.00 0.00 0.00 72 1013.7
20260509005120 45 162 0.0 2.0 0.00 0.00 0.00 72 1013.8
20260509004616 45 155 0.0 1.0 0.00 0.00 0.00 71 1013.6
20260509004113 46 168 1.0 2.0 0.00 0.00 0.00 70 1013.5
20260509003612 46 163 2.0 2.0 0.00 0.00 0.00 69 1013.5
20260509003109 46 159 1.0 3.0 0.00 0.00 0.00 67 1013.6
20260509002606 47 130 2.0 2.0 0.00 0.00 0.00 67 1013.3
20260509002103 48 143 2.0 3.0 0.00 0.00 0.00 68 1013.4
20260509001601 48 203 0.0 2.0 0.00 0.00 0.00 64 1013.1
20260509001056 49 195 1.0 3.0 0.00 0.00 0.00 64 1013.2
20260509000555 49 162 1.0 3.0 0.00 0.00 0.00 64 1013.3
20260509000050 50 129 1.0 3.0 0.00 0.00 0.00 62 1012.9
20260508235548 51 176 0.0 2.0 0.00 0.00 0.00 58 1013.2
20260508235044 51 164 0.0 2.0 0.00 0.00 0.00 57 1013.0
20260508234542 52 145 2.0 2.0 0.00 0.00 0.00 55 1012.9
20260508234039 53 111 0.0 2.0 0.00 0.00 0.00 53 1012.7
20260508233538 54 146 1.0 3.0 0.00 0.00 0.00 51 1012.4
20260508233035 55 9 0.0 2.0 0.00 0.00 0.00 47 1012.6
20260508232532 55 46 3.0 5.0 0.00 0.00 0.00 46 1012.6
20260508232029 55 22 2.0 2.0 0.00 0.00 0.00 45 1012.6
20260508231526 55 325 1.0 7.0 0.00 0.00 0.00 46 1012.5
20260508231023 55 353 1.0 4.0 0.00 0.00 0.00 47 1012.4
20260508230520 56 301 1.0 5.0 0.00 0.00 0.00 46 1012.3
20260508230017 57 45 2.0 6.0 0.00 0.00 0.00 46 1012.3
20260508225514 57 62 0.0 4.0 0.00 0.00 0.00 46 1012.1
20260508225010 57 50 2.0 8.0 0.00 0.00 0.00 46 1012.1
20260508224509 57 96 2.0 5.0 0.00 0.00 0.00 48 1012.2
20260508224005 56 45 2.0 5.0 0.00 0.00 0.00 50 1012.1
20260508223503 56 106 0.0 5.0 0.00 0.00 0.00 50 1012.2
20260508223000 56 167 3.0 8.0 0.00 0.00 0.00 49 1012.0
20260508222458 56 15 2.0 9.0 0.00 0.00 0.00 50 1012.2
20260508221954 56 74 3.0 6.0 0.00 0.00 0.00 49 1012.2
20260508221450 57 11 3.0 13.0 0.00 0.00 0.00 48 1012.1
20260508220946 57 156 2.0 5.0 0.00 0.00 0.00 49 1012.2
20260508220443 57 99 3.0 10.0 0.00 0.00 0.00 47 1012.1
20260508215939 57 232 5.0 7.0 0.00 0.00 0.00 49 1012.0
20260508215436 57 272 9.0 9.0 0.00 0.00 0.00 48 1011.9
20260508214933 57 121 3.0 7.0 0.00 0.00 0.00 49 1012.0
20260508214431 57 7 0.0 6.0 0.00 0.00 0.00 48 1011.9
20260508213926 57 78 0.0 7.0 0.00 0.00 0.00 48 1012.1
20260508213424 58 18 4.0 8.0 0.00 0.00 0.00 48 1012.2
20260508212919 58 106 3.0 9.0 0.00 0.00 0.00 48 1012.2
20260508212417 58 351 1.0 6.0 0.00 0.00 0.00 47 1012.0
20260508211912 56 70 3.0 5.0 0.00 0.00 0.00 49 1011.9
20260508211408 56 272 3.0 10.0 0.00 0.00 0.00 51 1012.2
20260508210906 59 307 6.0 10.0 0.00 0.00 0.00 48 1012.1
20260508210402 58 245 4.0 7.0 0.00 0.00 0.00 50 1012.0
20260508205858 57 1 6.0 11.0 0.00 0.00 0.00 51 1012.0
20260508205355 59 187 4.0 9.0 0.00 0.00 0.00 49 1011.8
20260508204851 59 351 2.0 9.0 0.00 0.00 0.00 49 1011.7
20260508204349 58 262 7.0 14.0 0.00 0.00 0.00 49 1011.8
20260508203844 56 77 5.0 13.0 0.00 0.00 0.00 51 1011.9
20260508203341 58 302 0.0 5.0 0.00 0.00 0.00 53 1012.0
20260508202836 59 144 3.0 7.0 0.00 0.00 0.00 52 1012.1
20260508202334 57 11 5.0 9.0 0.00 0.00 0.00 55 1011.9
20260508201831 58 312 4.0 8.0 0.00 0.00 0.00 54 1011.7
20260508201328 57 97 3.0 4.0 0.00 0.00 0.00 56 1012.0
20260508200824 57 96 3.0 9.0 0.00 0.00 0.00 54 1011.8
20260508200321 57 103 3.0 5.0 0.00 0.00 0.00 58 1011.9
20260508195811 57 99 2.0 7.0 0.00 0.00 0.00 56 1012.0
20260508195308 59 101 6.0 13.0 0.00 0.00 0.00 52 1011.8
20260508194804 58 102 2.0 7.0 0.00 0.00 0.00 54 1012.0
20260508194302 58 130 3.0 9.0 0.00 0.00 0.00 53 1011.7
20260508193759 58 307 3.0 11.0 0.00 0.00 0.00 53 1012.0
20260508193255 57 354 1.0 14.0 0.00 0.00 0.00 54 1012.0
20260508192751 58 227 3.0 6.0 0.00 0.00 0.00 53 1012.1
20260508192249 57 247 1.0 9.0 0.00 0.00 0.00 59 1012.0
20260508191746 56 113 3.0 8.0 0.00 0.00 0.00 58 1012.1
20260508191243 56 291 1.0 4.0 0.00 0.00 0.00 58 1012.1
20260508190740 56 116 2.0 6.0 0.00 0.00 0.00 56 1011.9
20260508190236 57 101 1.0 7.0 0.00 0.00 0.00 55 1011.8
20260508185733 57 178 0.0 5.0 0.00 0.00 0.00 55 1011.9
20260508185230 58 327 0.0 7.0 0.00 0.00 0.00 53 1011.7
20260508184727 60 258 3.0 12.0 0.00 0.00 0.00 53 1011.9
20260508184224 57 40 6.0 11.0 0.00 0.00 0.00 52 1011.8
20260508183721 56 98 3.0 8.0 0.00 0.00 0.00 53 1012.0
20260508183217 59 47 5.0 7.0 0.00 0.00 0.00 52 1012.0
20260508182713 59 320 4.0 13.0 0.00 0.00 0.00 50 1012.2
20260508182210 57 129 2.0 9.0 0.00 0.00 0.00 57 1012.0
20260508181706 56 264 3.0 9.0 0.00 0.00 0.00 53 1012.0
20260508181203 57 117 2.0 8.0 0.00 0.00 0.00 56 1012.0
20260508180700 57 21 2.0 6.0 0.00 0.00 0.00 55 1011.9
20260508180157 55 281 7.0 9.0 0.00 0.00 0.00 57 1012.2
20260508175653 55 257 9.0 16.0 0.00 0.00 0.00 59 1012.3
20260508175150 55 52 3.0 7.0 0.00 0.00 0.00 59 1012.3
20260508174648 53 237 4.0 9.0 0.00 0.00 0.00 59 1012.3
20260508174144 54 270 3.0 9.0 0.00 0.00 0.00 58 1012.4
20260508173641 55 159 2.0 12.0 0.00 0.00 0.00 55 1012.3
20260508173137 55 62 3.0 6.0 0.00 0.00 0.00 58 1012.2
20260508172635 55 111 2.0 8.0 0.00 0.00 0.00 60 1012.3
20260508172131 54 299 2.0 10.0 0.00 0.00 0.00 59 1012.2
20260508171628 54 46 5.0 12.0 0.00 0.00 0.00 59 1012.1
20260508171124 55 161 4.0 14.0 0.00 0.00 0.00 57 1012.0
20260508170621 55 1 2.0 6.0 0.00 0.00 0.00 52 1011.9
20260508170119 57 286 2.0 15.0 0.00 0.00 0.00 52 1011.8
20260508165616 57 27 5.0 10.0 0.00 0.00 0.00 47 1011.3
20260508165113 58 270 6.0 9.0 0.00 0.00 0.00 46 1011.4
20260508164609 58 317 5.0 8.0 0.00 0.00 0.00 45 1011.2
20260508164106 59 329 4.0 11.0 0.00 0.00 0.00 45 1011.4
20260508163603 59 272 5.0 10.0 0.00 0.00 0.00 44 1011.3
20260508163100 58 9 4.0 7.0 0.00 0.00 0.00 42 1011.4
20260508162557 58 5 3.0 8.0 0.00 0.00 0.00 43 1011.2
20260508162054 58 254 5.0 10.0 0.00 0.00 0.00 44 1011.4
20260508161551 58 277 2.0 10.0 0.00 0.00 0.00 46 1011.4
20260508161048 59 30 5.0 8.0 0.00 0.00 0.00 45 1011.6
20260508160546 58 25 14.0 14.0 0.00 0.00 0.00 42 1011.7
20260508160043 58 280 5.0 10.0 0.00 0.00 0.00 43 1011.9
20260508155540 59 310 2.0 7.0 0.00 0.00 0.00 44 1011.9
20260508155037 58 211 3.0 5.0 0.00 0.00 0.00 50 1011.8
20260508154534 56 308 5.0 13.0 0.00 0.00 0.00 47 1011.9
20260508154031 59 256 4.0 10.0 0.00 0.00 0.00 47 1011.8
20260508153528 59 35 2.0 5.0 0.00 0.00 0.00 50 1012.1
20260508153024 60 220 3.0 8.0 0.00 0.00 0.00 46 1012.1
20260508152521 58 315 2.0 5.0 0.00 0.00 0.00 50 1011.9
20260508152017 57 59 4.0 8.0 0.00 0.00 0.00 52 1012.0
20260508151514 56 315 2.0 7.0 0.00 0.00 0.00 49 1012.0
20260508151010 57 309 6.0 11.0 0.00 0.00 0.00 47 1012.2
20260508150508 55 309 2.0 5.0 0.00 0.00 0.00 52 1012.0
20260508150004 57 98 5.0 10.0 0.00 0.00 0.00 47 1012.1
20260508145500 56 15 2.0 8.0 0.00 0.00 0.00 51 1012.2
20260508144956 56 224 4.0 9.0 0.00 0.00 0.00 49 1012.2
20260508144454 56 247 5.0 10.0 0.00 0.00 0.00 51 1012.4
20260508143951 55 4 0.0 10.0 0.00 0.00 0.00 54 1012.5
20260508143449 55 213 6.0 8.0 0.00 0.00 0.00 54 1012.3
20260508142945 55 313 4.0 13.0 0.00 0.00 0.00 55 1012.3
20260508142442 55 259 2.0 8.0 0.00 0.00 0.00 53 1012.3
20260508141938 55 239 1.0 7.0 0.00 0.00 0.00 51 1012.3
20260508141435 55 29 2.0 6.0 0.00 0.00 0.00 51 1012.3
20260508140933 54 301 3.0 6.0 0.00 0.00 0.00 54 1012.5
20260508140430 54 60 2.0 4.0 0.00 0.00 0.00 56 1012.4
20260508135925 55 89 3.0 4.0 0.00 0.00 0.00 55 1012.6
20260508135422 54 106 1.0 9.0 0.00 0.00 0.00 54 1012.4
20260508134919 54 217 2.0 9.0 0.00 0.00 0.00 55 1012.6
20260508134415 53 309 0.0 6.0 0.00 0.00 0.00 56 1012.6
20260508133912 52 185 2.0 7.0 0.00 0.00 0.00 60 1012.9
20260508133410 52 193 3.0 5.0 0.00 0.00 0.00 56 1013.0
20260508132907 52 65 5.0 6.0 0.00 0.00 0.00 54 1013.1
20260508132405 53 163 2.0 7.0 0.00 0.00 0.00 55 1013.0
20260508131901 52 157 2.0 14.0 0.00 0.00 0.00 54 1013.0
20260508131356 53 241 2.0 5.0 0.00 0.00 0.00 56 1012.8
20260508130854 53 169 4.0 6.0 0.00 0.00 0.00 56 1012.8
20260508130350 54 164 4.0 6.0 0.00 0.00 0.00 54 1012.8
20260508125846 54 108 1.0 5.0 0.00 0.00 0.00 56 1012.9
20260508125342 54 29 1.0 6.0 0.00 0.00 0.00 55 1012.8
20260508124840 53 296 2.0 6.0 0.00 0.00 0.00 60 1012.8
20260508124338 53 192 1.0 3.0 0.00 0.00 0.00 59 1013.1
20260508123836 52 184 3.0 7.0 0.00 0.00 0.00 61 1012.8
20260508123334 51 163 3.0 7.0 0.00 0.00 0.00 64 1012.9
20260508122830 51 187 3.0 3.0 0.00 0.00 0.00 64 1013.1
20260508122327 50 80 2.0 4.0 0.00 0.00 0.00 68 1013.1
20260508121824 50 69 0.0 4.0 0.00 0.00 0.00 67 1013.1
20260508121323 50 53 3.0 4.0 0.00 0.00 0.00 68 1013.1
20260508120820 49 44 2.0 3.0 0.00 0.00 0.00 71 1012.9
20260508120318 48 221 1.0 2.0 0.00 0.00 0.00 73 1013.1
20260508115815 47 229 2.0 2.0 0.00 0.00 0.00 77 1013.1
20260508115312 45 188 1.0 2.0 0.00 0.00 0.00 82 1013.1
20260508114809 43 229 0.0 2.0 0.00 0.00 0.00 86 1013.2
20260508114306 41 9 1.0 2.0 0.00 0.00 0.00 88 1012.9
20260508113802 41 277 0.0 2.0 0.00 0.00 0.00 89 1013.1
20260508113301 41 239 1.0 2.0 0.00 0.00 0.00 91 1013.1
20260508112756 41 225 1.0 2.0 0.00 0.00 0.00 93 1013.0
20260508112254 40 186 1.0 2.0 0.00 0.00 0.00 95 1013.2
20260508111749 39 189 0.0 2.0 0.00 0.00 0.00 96 1013.0
20260508111247 39 114 0.0 1.0 0.00 0.00 0.00 97 1012.8
20260508110744 38 160 0.0 2.0 0.00 0.00 0.00 97 1012.8
20260508110242 37 176 0.0 2.0 0.00 0.00 0.00 97 1012.9
20260508105736 37 165 2.0 2.0 0.00 0.00 0.00 97 1012.7
20260508105233 37 159 1.0 2.0 0.00 0.00 0.00 97 1012.8
20260508104730 37 242 1.0 2.0 0.00 0.00 0.00 97 1012.8
20260508104227 37 230 0.0 2.0 0.00 0.00 0.00 97 1012.8
20260508103724 37 224 0.0 2.0 0.00 0.00 0.00 97 1012.7
20260508103221 36 231 0.0 2.0 0.00 0.00 0.00 97 1012.8
20260508102718 36 230 0.0 3.0 0.00 0.00 0.00 97 1012.7
20260508102216 36 222 2.0 3.0 0.00 0.00 0.00 97 1012.5
20260508101713 36 250 0.0 2.0 0.00 0.00 0.00 97 1012.6
20260508101210 36 294 0.0 2.0 0.00 0.00 0.00 97 1012.4
20260508100707 36 216 0.0 2.0 0.00 0.00 0.00 97 1012.3
20260508100206 37 281 0.0 3.0 0.00 0.00 0.00 96 1012.1
20260508095656 37 12 0.0 2.0 0.00 0.00 0.00 96 1012.4
20260508095154 37 189 0.0 2.0 0.00 0.00 0.00 96 1012.2
20260508094650 37 259 0.0 2.0 0.00 0.00 0.00 96 1012.0
20260508094147 37 34 0.0 2.0 0.00 0.00 0.00 96 1012.1
20260508093645 37 145 0.0 2.0 0.00 0.00 0.00 95 1011.9
20260508093142 37 138 0.0 2.0 0.00 0.00 0.00 95 1012.0
20260508092639 37 193 0.0 2.0 0.00 0.00 0.00 94 1012.0
20260508092138 37 194 2.0 3.0 0.00 0.00 0.00 94 1012.0
20260508091634 38 241 1.0 3.0 0.00 0.00 0.00 94 1012.0
20260508091132 38 27 0.0 2.0 0.00 0.00 0.00 94 1012.0
20260508090630 38 14 1.0 2.0 0.00 0.00 0.00 94 1011.7
20260508090127 38 189 0.0 3.0 0.00 0.00 0.00 93 1011.6
20260508085622 39 164 0.0 2.0 0.00 0.00 0.00 93 1011.8
20260508085120 39 92 0.0 2.0 0.00 0.00 0.00 93 1012.0
20260508084616 39 230 0.0 2.0 0.00 0.00 0.00 93 1011.7
20260508084114 39 261 2.0 3.0 0.00 0.00 0.00 93 1011.9
20260508083611 39 273 1.0 2.0 0.00 0.00 0.00 93 1011.7
20260508083108 39 295 0.0 2.0 0.00 0.00 0.00 93 1011.6
20260508082603 39 280 0.0 1.0 0.00 0.00 0.00 93 1011.9
20260508082101 39 189 0.0 2.0 0.00 0.00 0.00 93 1011.6
20260508081558 39 135 2.0 3.0 0.00 0.00 0.00 93 1011.6
20260508081054 39 130 0.0 2.0 0.00 0.00 0.00 92 1011.8
20260508080552 39 166 0.0 3.0 0.00 0.00 0.00 92 1011.8
20260508080050 39 171 0.0 2.0 0.00 0.00 0.00 92 1011.7
20260508075546 39 184 1.0 2.0 0.00 0.00 0.00 92 1011.7
20260508075043 39 269 2.0 2.0 0.00 0.00 0.00 92 1011.8
20260508074541 39 213 0.0 2.0 0.00 0.00 0.00 92 1011.8
20260508074038 39 53 0.0 3.0 0.00 0.00 0.00 92 1011.6
20260508073535 39 68 2.0 4.0 0.00 0.00 0.00 92 1011.4
20260508073033 39 73 2.0 4.0 0.00 0.00 0.00 92 1011.5
20260508072528 39 240 1.0 3.0 0.00 0.00 0.00 92 1011.6
20260508072026 39 9 2.0 6.0 0.00 0.00 0.00 92 1011.5
20260508071523 39 159 0.0 4.0 0.00 0.00 0.00 93 1011.5
20260508071021 39 58 1.0 3.0 0.00 0.00 0.00 94 1011.6
20260508070518 39 21 2.0 3.0 0.00 0.00 0.00 94 1011.5
20260508070016 39 64 3.0 4.0 0.00 0.00 0.00 95 1011.6
20260508065514 38 19 1.0 3.0 0.00 0.00 0.00 95 1011.4
20260508065012 38 318 0.0 3.0 0.00 0.00 0.00 96 1011.4
20260508064509 38 35 2.0 4.0 0.00 0.00 0.00 97 1011.5
20260508064007 38 128 2.0 4.0 0.00 0.00 0.00 98 1011.6
20260508063504 37 221 0.0 4.0 0.00 0.00 0.00 98 1011.6
20260508063002 37 319 1.0 4.0 0.00 0.00 0.00 98 1011.3
20260508062459 36 237 2.0 2.0 0.00 0.00 0.00 98 1010.8
20260508061955 36 186 1.0 2.0 0.00 0.00 0.00 98 1010.7
20260508061454 36 151 1.0 3.0 0.00 0.00 0.00 97 1010.7
20260508060950 36 181 2.0 2.0 0.00 0.00 0.00 97 1010.7
20260508060447 35 202 0.0 1.0 0.00 0.00 0.00 97 1010.8
20260508055943 35 222 0.0 2.0 0.00 0.00 0.00 97 1010.6
20260508055440 35 194 0.0 2.0 0.00 0.00 0.00 97 1010.9
20260508054936 35 189 0.0 2.0 0.00 0.00 0.00 97 1010.9
20260508054434 35 206 0.0 2.0 0.00 0.00 0.00 97 1010.7
20260508053930 35 200 0.0 2.0 0.00 0.00 0.00 96 1010.9
20260508053427 36 162 0.0 2.0 0.00 0.00 0.00 96 1010.9
20260508052925 36 189 0.0 3.0 0.00 0.00 0.00 96 1010.9
20260508052422 36 217 2.0 3.0 0.00 0.00 0.00 96 1011.0
20260508051919 36 209 0.0 2.0 0.00 0.00 0.00 96 1011.0
20260508051415 37 199 0.0 3.0 0.00 0.00 0.00 96 1010.8
20260508050911 37 189 1.0 2.0 0.00 0.00 0.00 96 1011.2
20260508050408 36 218 0.0 1.0 0.00 0.00 0.00 96 1011.2
20260508045903 37 179 1.0 2.0 0.00 0.00 0.00 96 1011.2
20260508045402 36 166 0.0 2.0 0.00 0.00 0.00 95 1011.0
20260508044859 37 223 1.0 2.0 0.00 0.00 0.00 95 1011.0
20260508044355 37 245 0.0 2.0 0.00 0.00 0.00 95 1010.8
20260508043851 37 195 0.0 2.0 0.00 0.00 0.00 95 1010.8
20260508043349 37 167 2.0 2.0 0.00 0.00 0.00 95 1011.4
20260508042845 37 171 1.0 2.0 0.00 0.00 0.00 95 1010.9
20260508042343 37 167 1.0 2.0 0.00 0.00 0.00 94 1011.0
20260508041839 37 189 0.0 1.0 0.00 0.00 0.00 94 1011.3
20260508041336 38 189 0.0 2.0 0.00 0.00 0.00 94 1011.2
20260508040832 38 167 1.0 2.0 0.00 0.00 0.00 94 1010.9
20260508040330 38 169 2.0 2.0 0.00 0.00 0.00 94 1011.3
20260508035827 38 170 0.0 2.0 0.00 0.06 0.06 94 1011.2
20260508035324 38 157 1.0 2.0 0.00 0.06 0.06 93 1011.3
20260508034821 38 191 1.0 2.0 0.00 0.06 0.06 93 1011.0
20260508034318 38 199 0.0 1.0 0.00 0.06 0.06 93 1011.0
20260508033815 38 189 0.0 1.0 0.00 0.06 0.06 92 1010.9
20260508033313 39 186 1.0 2.0 0.00 0.06 0.06 92 1011.2
20260508032810 39 240 0.0 2.0 0.00 0.06 0.06 91 1011.2
20260508032308 39 188 2.0 2.0 0.00 0.06 0.06 91 1011.0
20260508031804 39 45 2.0 3.0 0.00 0.06 0.06 91 1011.2
20260508031301 39 206 1.0 2.0 0.00 0.06 0.06 90 1011.0